owner,sensor,date,latitude,longitude,vertical_datum,sea_water_practical_salinity,qcFlag 
SCCF RECON,ioos:station:SCCF:13:1,2014-04-01T00:00:00Z,26.5255,-82.0032,2.26,24.36,1111122 
SCCF RECON,ioos:station:SCCF:13:1,2014-04-01T01:00:00Z,26.5255,-82.0032,2.194,22.33,1111122 
SCCF RECON,ioos:station:SCCF:13:1,2014-04-01T02:00:00Z,26.5255,-82.0032,2.18,20.43,1111122 
SCCF RECON,ioos:station:SCCF:13:1,2014-04-01T03:00:00Z,26.5255,-82.0032,2.31,19.2,1111122 
SCCF RECON,ioos:station:SCCF:13:1,2014-04-01T04:00:00Z,26.5255,-82.0032,2.47,19.63,1111122 
SCCF RECON,ioos:station:SCCF:13:1,2014-04-01T05:00:00Z,26.5255,-82.0032,2.57,23.94,1111122 
SCCF RECON,ioos:station:SCCF:13:1,2014-04-01T06:00:00Z,26.5255,-82.0032,2.64,26.57,1111122 
SCCF RECON,ioos:station:SCCF:13:1,2014-04-01T07:00:00Z,26.5255,-82.0032,2.69,28.76,1111122 
SCCF RECON,ioos:station:SCCF:13:1,2014-04-01T08:00:00Z,26.5255,-82.0032,2.699,29.18,1111122 
SCCF RECON,ioos:station:SCCF:13:1,2014-04-01T09:00:00Z,26.5255,-82.0032,2.62,29.45,1111122 
SCCF RECON,ioos:station:SCCF:13:1,2014-04-01T10:00:00Z,26.5255,-82.0032,2.53,29.53,1111122 
SCCF RECON,ioos:station:SCCF:13:1,2014-04-01T11:00:00Z,26.5255,-82.0032,2.46,28.4,1111122 
SCCF RECON,ioos:station:SCCF:13:1,2014-04-01T12:00:00Z,26.5255,-82.0032,2.401,24.33,1111122 
SCCF RECON,ioos:station:SCCF:13:1,2014-04-01T13:00:00Z,26.5255,-82.0032,2.37,21.96,1111122 
SCCF RECON,ioos:station:SCCF:13:1,2014-04-01T14:00:00Z,26.5255,-82.0032,2.41,20.74,1111122 
SCCF RECON,ioos:station:SCCF:13:1,2014-04-01T15:00:00Z,26.5255,-82.0032,2.56,20.42,1111122 
SCCF RECON,ioos:station:SCCF:13:1,2014-04-01T16:00:00Z,26.5255,-82.0032,2.68,25.52,1111122 
SCCF RECON,ioos:station:SCCF:13:1,2014-04-01T17:00:00Z,26.5255,-82.0032,2.767,28.02,1111122 
SCCF RECON,ioos:station:SCCF:13:1,2014-04-01T18:00:00Z,26.5255,-82.0032,2.81,29.99,1111122 
SCCF RECON,ioos:station:SCCF:13:1,2014-04-01T19:00:00Z,26.5255,-82.0032,2.83,31.35,1111122 
SCCF RECON,ioos:station:SCCF:13:1,2014-04-01T20:00:00Z,26.5255,-82.0032,2.806,31.37,1111122 
SCCF RECON,ioos:station:SCCF:13:1,2014-04-01T21:00:00Z,26.5255,-82.0032,2.7,31.16,1111122 
SCCF RECON,ioos:station:SCCF:13:1,2014-04-01T22:00:00Z,26.5255,-82.0032,2.579,31.19,1111122 
SCCF RECON,ioos:station:SCCF:13:1,2014-04-01T23:00:00Z,26.5255,-82.0032,2.482,30.03,1111122 
SCCF RECON,ioos:station:SCCF:13:1,2014-04-02T00:00:00Z,26.5255,-82.0032,2.41,28.97,1111122 
SCCF RECON,ioos:station:SCCF:13:1,2014-04-02T01:00:00Z,26.5255,-82.0032,2.331,26.19,1111122 
SCCF RECON,ioos:station:SCCF:13:1,2014-04-02T02:00:00Z,26.5255,-82.0032,2.27,23.49,1111122 
SCCF RECON,ioos:station:SCCF:13:1,2014-04-02T03:00:00Z,26.5255,-82.0032,2.26,21.18,1111122 
SCCF RECON,ioos:station:SCCF:13:1,2014-04-02T04:00:00Z,26.5255,-82.0032,2.419,20.16,1111122 
SCCF RECON,ioos:station:SCCF:13:1,2014-04-02T05:00:00Z,26.5255,-82.0032,2.54,20.41,1111122 
SCCF RECON,ioos:station:SCCF:13:1,2014-04-02T06:00:00Z,26.5255,-82.0032,2.61,24.25,1111122 
SCCF RECON,ioos:station:SCCF:13:1,2014-04-02T07:00:00Z,26.5255,-82.0032,2.66,26.92,1111122 
SCCF RECON,ioos:station:SCCF:13:1,2014-04-02T08:00:00Z,26.5255,-82.0032,2.69,29.03,1111122 
SCCF RECON,ioos:station:SCCF:13:1,2014-04-02T09:00:00Z,26.5255,-82.0032,2.681,29.71,1111122 
SCCF RECON,ioos:station:SCCF:13:1,2014-04-02T10:00:00Z,26.5255,-82.0032,2.61,29.79,1111122 
SCCF RECON,ioos:station:SCCF:13:1,2014-04-02T11:00:00Z,26.5255,-82.0032,2.55,29.8,1111122 
SCCF RECON,ioos:station:SCCF:13:1,2014-04-02T12:00:00Z,26.5255,-82.0032,2.482,27.35,1111122 
SCCF RECON,ioos:station:SCCF:13:1,2014-04-02T13:00:00Z,26.5255,-82.0032,2.43,22.74,1111122 
SCCF RECON,ioos:station:SCCF:13:1,2014-04-02T14:00:00Z,26.5255,-82.0032,2.42,21.42,1111122 
SCCF RECON,ioos:station:SCCF:13:1,2014-04-02T15:00:00Z,26.5255,-82.0032,2.506,20.25,1111122 
SCCF RECON,ioos:station:SCCF:13:1,2014-04-02T16:00:00Z,26.5255,-82.0032,2.633,21.87,1111122 
SCCF RECON,ioos:station:SCCF:13:1,2014-04-02T17:00:00Z,26.5255,-82.0032,2.732,26.7,1111122 
SCCF RECON,ioos:station:SCCF:13:1,2014-04-02T18:00:00Z,26.5255,-82.0032,2.785,28.66,1111122 
SCCF RECON,ioos:station:SCCF:13:1,2014-04-02T19:00:00Z,26.5255,-82.0032,2.82,30.99,1111122 
SCCF RECON,ioos:station:SCCF:13:1,2014-04-02T20:00:00Z,26.5255,-82.0032,2.809,31.74,1111122 
SCCF RECON,ioos:station:SCCF:13:1,2014-04-02T21:00:00Z,26.5255,-82.0032,2.731,31.72,1111122 
SCCF RECON,ioos:station:SCCF:13:1,2014-04-02T22:00:00Z,26.5255,-82.0032,2.628,31.67,1111122 
SCCF RECON,ioos:station:SCCF:13:1,2014-04-02T23:00:00Z,26.5255,-82.0032,2.52,30.35,1111122 
SCCF RECON,ioos:station:SCCF:13:1,2014-04-03T00:00:00Z,26.5255,-82.0032,2.442,27.69,1111122 
SCCF RECON,ioos:station:SCCF:13:1,2014-04-03T01:00:00Z,26.5255,-82.0032,2.37,26.12,1111122 
SCCF RECON,ioos:station:SCCF:13:1,2014-04-03T02:00:00Z,26.5255,-82.0032,2.292,23.84,1111122 
SCCF RECON,ioos:station:SCCF:13:1,2014-04-03T03:00:00Z,26.5255,-82.0032,2.23,21.7,1111122 
SCCF RECON,ioos:station:SCCF:13:1,2014-04-03T04:00:00Z,26.5255,-82.0032,2.241,20.51,1111122 
SCCF RECON,ioos:station:SCCF:13:1,2014-04-03T05:00:00Z,26.5255,-82.0032,2.39,19.55,1111122 
SCCF RECON,ioos:station:SCCF:13:1,2014-04-03T06:00:00Z,26.5255,-82.0032,2.481,19.33,1111122 
SCCF RECON,ioos:station:SCCF:13:1,2014-04-03T07:00:00Z,26.5255,-82.0032,2.52,22.8,1111122 
SCCF RECON,ioos:station:SCCF:13:1,2014-04-03T08:00:00Z,26.5255,-82.0032,2.546,24.79,1111122 
SCCF RECON,ioos:station:SCCF:13:1,2014-04-03T09:00:00Z,26.5255,-82.0032,2.57,27.19,1111122 
SCCF RECON,ioos:station:SCCF:13:1,2014-04-03T10:00:00Z,26.5255,-82.0032,2.55,28.82,1111122 
SCCF RECON,ioos:station:SCCF:13:1,2014-04-03T11:00:00Z,26.5255,-82.0032,2.5,29.51,1111122 
SCCF RECON,ioos:station:SCCF:13:1,2014-04-03T12:00:00Z,26.5255,-82.0032,2.46,29.0,1111122 
SCCF RECON,ioos:station:SCCF:13:1,2014-04-03T13:00:00Z,26.5255,-82.0032,2.45,26.92,1111122 
SCCF RECON,ioos:station:SCCF:13:1,2014-04-03T14:00:00Z,26.5255,-82.0032,2.429,21.16,1111122 
SCCF RECON,ioos:station:SCCF:13:1,2014-04-03T15:00:00Z,26.5255,-82.0032,2.454,20.07,1111122 
SCCF RECON,ioos:station:SCCF:13:1,2014-04-03T16:00:00Z,26.5255,-82.0032,2.53,22.74,1111122 
SCCF RECON,ioos:station:SCCF:13:1,2014-04-03T17:00:00Z,26.5255,-82.0032,2.615,27.34,1111122 
SCCF RECON,ioos:station:SCCF:13:1,2014-04-03T18:00:00Z,26.5255,-82.0032,2.699,28.58,1111122 
SCCF RECON,ioos:station:SCCF:13:1,2014-04-03T19:00:00Z,26.5255,-82.0032,2.75,30.72,1111122 
SCCF RECON,ioos:station:SCCF:13:1,2014-04-03T20:00:00Z,26.5255,-82.0032,2.781,31.94,1111122 
SCCF RECON,ioos:station:SCCF:13:1,2014-04-03T21:00:00Z,26.5255,-82.0032,2.776,32.23,1111122 
SCCF RECON,ioos:station:SCCF:13:1,2014-04-03T22:00:00Z,26.5255,-82.0032,2.71,32.1,1111122 
SCCF RECON,ioos:station:SCCF:13:1,2014-04-03T23:00:00Z,26.5255,-82.0032,2.61,31.98,1111122 
SCCF RECON,ioos:station:SCCF:13:1,2014-04-04T00:00:00Z,26.5255,-82.0032,2.51,31.06,1111122 
SCCF RECON,ioos:station:SCCF:13:1,2014-04-04T01:00:00Z,26.5255,-82.0032,2.43,29.21,1111122 
SCCF RECON,ioos:station:SCCF:13:1,2014-04-04T02:00:00Z,26.5255,-82.0032,2.367,27.52,1111122 
SCCF RECON,ioos:station:SCCF:13:1,2014-04-04T03:00:00Z,26.5255,-82.0032,2.29,24.16,1111122 
SCCF RECON,ioos:station:SCCF:13:1,2014-04-04T04:00:00Z,26.5255,-82.0032,2.25,22.14,1111122 
SCCF RECON,ioos:station:SCCF:13:1,2014-04-04T05:00:00Z,26.5255,-82.0032,2.318,21.05,1111122 
SCCF RECON,ioos:station:SCCF:13:1,2014-04-04T06:00:00Z,26.5255,-82.0032,2.436,19.94,1111122 
SCCF RECON,ioos:station:SCCF:13:1,2014-04-04T07:00:00Z,26.5255,-82.0032,2.49,21.72,1111122 
SCCF RECON,ioos:station:SCCF:13:1,2014-04-04T08:00:00Z,26.5255,-82.0032,2.525,25.11,1111122 
SCCF RECON,ioos:station:SCCF:13:1,2014-04-04T09:00:00Z,26.5255,-82.0032,2.57,27.32,1111122 
SCCF RECON,ioos:station:SCCF:13:1,2014-04-04T10:00:00Z,26.5255,-82.0032,2.6,29.03,1111122 
SCCF RECON,ioos:station:SCCF:13:1,2014-04-04T11:00:00Z,26.5255,-82.0032,2.58,29.95,1111122 
SCCF RECON,ioos:station:SCCF:13:1,2014-04-04T12:00:00Z,26.5255,-82.0032,2.55,30.37,1111122 
SCCF RECON,ioos:station:SCCF:13:1,2014-04-04T13:00:00Z,26.5255,-82.0032,2.54,30.68,1111122 
SCCF RECON,ioos:station:SCCF:13:1,2014-04-04T14:00:00Z,26.5255,-82.0032,2.52,29.64,1111122 
SCCF RECON,ioos:station:SCCF:13:1,2014-04-04T15:00:00Z,26.5255,-82.0032,2.52,29.6,1111122 
SCCF RECON,ioos:station:SCCF:13:1,2014-04-04T16:00:00Z,26.5255,-82.0032,2.55,29.84,1111122 
SCCF RECON,ioos:station:SCCF:13:1,2014-04-04T17:00:00Z,26.5255,-82.0032,2.613,29.05,1111122 
SCCF RECON,ioos:station:SCCF:13:1,2014-04-04T18:00:00Z,26.5255,-82.0032,2.69,30.41,1111122 
SCCF RECON,ioos:station:SCCF:13:1,2014-04-04T19:00:00Z,26.5255,-82.0032,2.749,31.06,1111122 
SCCF RECON,ioos:station:SCCF:13:1,2014-04-04T20:00:00Z,26.5255,-82.0032,2.79,32.14,1111122 
SCCF RECON,ioos:station:SCCF:13:1,2014-04-04T21:00:00Z,26.5255,-82.0032,2.79,32.38,1111122 
SCCF RECON,ioos:station:SCCF:13:1,2014-04-04T22:00:00Z,26.5255,-82.0032,2.74,32.56,1111122 
SCCF RECON,ioos:station:SCCF:13:1,2014-04-04T23:00:00Z,26.5255,-82.0032,2.66,32.54,1111122 
SCCF RECON,ioos:station:SCCF:13:1,2014-04-05T00:00:00Z,26.5255,-82.0032,2.573,31.74,1111122 
SCCF RECON,ioos:station:SCCF:13:1,2014-04-05T01:00:00Z,26.5255,-82.0032,2.5,30.2,1111122 
SCCF RECON,ioos:station:SCCF:13:1,2014-04-05T02:00:00Z,26.5255,-82.0032,2.43,26.95,1111122 
SCCF RECON,ioos:station:SCCF:13:1,2014-04-05T03:00:00Z,26.5255,-82.0032,2.354,25.15,1111122 
SCCF RECON,ioos:station:SCCF:13:1,2014-04-05T04:00:00Z,26.5255,-82.0032,2.28,23.4,1111122 
SCCF RECON,ioos:station:SCCF:13:1,2014-04-05T05:00:00Z,26.5255,-82.0032,2.24,22.42,1111122 
SCCF RECON,ioos:station:SCCF:13:1,2014-04-05T06:00:00Z,26.5255,-82.0032,2.3,21.25,1111122 
SCCF RECON,ioos:station:SCCF:13:1,2014-04-05T07:00:00Z,26.5255,-82.0032,2.41,19.92,1111122 
SCCF RECON,ioos:station:SCCF:13:1,2014-04-05T08:00:00Z,26.5255,-82.0032,2.47,20.95,1111122 
SCCF RECON,ioos:station:SCCF:13:1,2014-04-05T09:00:00Z,26.5255,-82.0032,2.517,23.71,1111122 
SCCF RECON,ioos:station:SCCF:13:1,2014-04-05T10:00:00Z,26.5255,-82.0032,2.559,26.58,1111122 
SCCF RECON,ioos:station:SCCF:13:1,2014-04-05T11:00:00Z,26.5255,-82.0032,2.575,28.44,1111122 
SCCF RECON,ioos:station:SCCF:13:1,2014-04-05T12:00:00Z,26.5255,-82.0032,2.572,29.93,1111122 
SCCF RECON,ioos:station:SCCF:13:1,2014-04-05T13:00:00Z,26.5255,-82.0032,2.54,30.67,1111122 
SCCF RECON,ioos:station:SCCF:13:1,2014-04-05T14:00:00Z,26.5255,-82.0032,2.51,30.5,1111122 
SCCF RECON,ioos:station:SCCF:13:1,2014-04-05T15:00:00Z,26.5255,-82.0032,2.499,29.72,1111122 
SCCF RECON,ioos:station:SCCF:13:1,2014-04-05T16:00:00Z,26.5255,-82.0032,2.51,27.95,1111122 
SCCF RECON,ioos:station:SCCF:13:1,2014-04-05T17:00:00Z,26.5255,-82.0032,2.57,28.42,1111122 
SCCF RECON,ioos:station:SCCF:13:1,2014-04-05T18:00:00Z,26.5255,-82.0032,2.602,28.44,1111122 
SCCF RECON,ioos:station:SCCF:13:1,2014-04-05T19:00:00Z,26.5255,-82.0032,2.64,28.99,1111122 
SCCF RECON,ioos:station:SCCF:13:1,2014-04-05T20:00:00Z,26.5255,-82.0032,2.691,29.61,1111122 
SCCF RECON,ioos:station:SCCF:13:1,2014-04-05T21:00:00Z,26.5255,-82.0032,2.72,30.89,1111122 
SCCF RECON,ioos:station:SCCF:13:1,2014-04-05T22:00:00Z,26.5255,-82.0032,2.714,31.8,1111122 
SCCF RECON,ioos:station:SCCF:13:1,2014-04-05T23:00:00Z,26.5255,-82.0032,2.671,32.16,1111122 
SCCF RECON,ioos:station:SCCF:13:1,2014-04-06T00:00:00Z,26.5255,-82.0032,2.61,31.99,1111122 
SCCF RECON,ioos:station:SCCF:13:1,2014-04-06T01:00:00Z,26.5255,-82.0032,2.52,30.38,1111122 
SCCF RECON,ioos:station:SCCF:13:1,2014-04-06T02:00:00Z,26.5255,-82.0032,2.46,27.76,1111122 
SCCF RECON,ioos:station:SCCF:13:1,2014-04-06T03:00:00Z,26.5255,-82.0032,2.39,25.13,1111122 
SCCF RECON,ioos:station:SCCF:13:1,2014-04-06T04:00:00Z,26.5255,-82.0032,2.32,22.47,1111122 
SCCF RECON,ioos:station:SCCF:13:1,2014-04-06T05:00:00Z,26.5255,-82.0032,2.26,21.09,1111122 
SCCF RECON,ioos:station:SCCF:13:1,2014-04-06T06:00:00Z,26.5255,-82.0032,2.239,20.65,1111122 
SCCF RECON,ioos:station:SCCF:13:1,2014-04-06T07:00:00Z,26.5255,-82.0032,2.28,19.38,1111122 
SCCF RECON,ioos:station:SCCF:13:1,2014-04-06T08:00:00Z,26.5255,-82.0032,2.35,18.38,1111122 
SCCF RECON,ioos:station:SCCF:13:1,2014-04-06T09:00:00Z,26.5255,-82.0032,2.4,18.55,1111122 
SCCF RECON,ioos:station:SCCF:13:1,2014-04-06T10:00:00Z,26.5255,-82.0032,2.45,23.42,1111122 
SCCF RECON,ioos:station:SCCF:13:1,2014-04-06T11:00:00Z,26.5255,-82.0032,2.49,23.87,1111122 
SCCF RECON,ioos:station:SCCF:13:1,2014-04-06T12:00:00Z,26.5255,-82.0032,2.52,27.05,1111122 
SCCF RECON,ioos:station:SCCF:13:1,2014-04-06T13:00:00Z,26.5255,-82.0032,2.53,28.51,1111122 
SCCF RECON,ioos:station:SCCF:13:1,2014-04-06T14:00:00Z,26.5255,-82.0032,2.525,30.09,1111122 
SCCF RECON,ioos:station:SCCF:13:1,2014-04-06T15:00:00Z,26.5255,-82.0032,2.53,30.89,1111122 
SCCF RECON,ioos:station:SCCF:13:1,2014-04-06T16:00:00Z,26.5255,-82.0032,2.53,31.05,1111122 
SCCF RECON,ioos:station:SCCF:13:1,2014-04-06T17:00:00Z,26.5255,-82.0032,2.54,30.91,1111122 
SCCF RECON,ioos:station:SCCF:13:1,2014-04-06T18:00:00Z,26.5255,-82.0032,2.557,30.84,1111122 
SCCF RECON,ioos:station:SCCF:13:1,2014-04-06T19:00:00Z,26.5255,-82.0032,2.592,30.97,1111122 
SCCF RECON,ioos:station:SCCF:13:1,2014-04-06T20:00:00Z,26.5255,-82.0032,2.643,31.07,1111122 
SCCF RECON,ioos:station:SCCF:13:1,2014-04-06T21:00:00Z,26.5255,-82.0032,2.67,31.63,1111122 
SCCF RECON,ioos:station:SCCF:13:1,2014-04-06T22:00:00Z,26.5255,-82.0032,2.681,31.93,1111122 
SCCF RECON,ioos:station:SCCF:13:1,2014-04-06T23:00:00Z,26.5255,-82.0032,2.68,32.1,1111122 
SCCF RECON,ioos:station:SCCF:13:1,2014-04-07T00:00:00Z,26.5255,-82.0032,2.659,32.25,1111122 
SCCF RECON,ioos:station:SCCF:13:1,2014-04-07T01:00:00Z,26.5255,-82.0032,2.608,32.0,1111122 
SCCF RECON,ioos:station:SCCF:13:1,2014-04-07T02:00:00Z,26.5255,-82.0032,2.54,30.12,1111122 
SCCF RECON,ioos:station:SCCF:13:1,2014-04-07T03:00:00Z,26.5255,-82.0032,2.47,28.94,1111122 
SCCF RECON,ioos:station:SCCF:13:1,2014-04-07T04:00:00Z,26.5255,-82.0032,2.4,25.29,1111122 
SCCF RECON,ioos:station:SCCF:13:1,2014-04-07T05:00:00Z,26.5255,-82.0032,2.33,23.29,1111122 
SCCF RECON,ioos:station:SCCF:13:1,2014-04-07T06:00:00Z,26.5255,-82.0032,2.28,22.39,1111122 
SCCF RECON,ioos:station:SCCF:13:1,2014-04-07T07:00:00Z,26.5255,-82.0032,2.29,21.64,1111122 
SCCF RECON,ioos:station:SCCF:13:1,2014-04-07T08:00:00Z,26.5255,-82.0032,2.35,20.95,1111122 
SCCF RECON,ioos:station:SCCF:13:1,2014-04-07T09:00:00Z,26.5255,-82.0032,2.41,20.56,1111122 
SCCF RECON,ioos:station:SCCF:13:1,2014-04-07T10:00:00Z,26.5255,-82.0032,2.46,23.07,1111122 
SCCF RECON,ioos:station:SCCF:13:1,2014-04-07T11:00:00Z,26.5255,-82.0032,2.5,26.01,1111122 
SCCF RECON,ioos:station:SCCF:13:1,2014-04-07T12:00:00Z,26.5255,-82.0032,2.56,28.61,1111122 
SCCF RECON,ioos:station:SCCF:13:1,2014-04-07T13:00:00Z,26.5255,-82.0032,2.61,30.46,1111122 
SCCF RECON,ioos:station:SCCF:13:1,2014-04-07T14:00:00Z,26.5255,-82.0032,2.64,31.83,1111122 
SCCF RECON,ioos:station:SCCF:13:1,2014-04-07T15:00:00Z,26.5255,-82.0032,2.632,32.18,1111122 
SCCF RECON,ioos:station:SCCF:13:1,2014-04-07T16:00:00Z,26.5255,-82.0032,2.611,32.26,1111122 
SCCF RECON,ioos:station:SCCF:13:1,2014-04-07T17:00:00Z,26.5255,-82.0032,2.603,32.14,1111122 
SCCF RECON,ioos:station:SCCF:13:1,2014-04-07T18:00:00Z,26.5255,-82.0032,2.618,32.11,1111122 
SCCF RECON,ioos:station:SCCF:13:1,2014-04-07T19:00:00Z,26.5255,-82.0032,2.615,32.13,1111122 
SCCF RECON,ioos:station:SCCF:13:1,2014-04-07T20:00:00Z,26.5255,-82.0032,2.61,32.22,1111122 
SCCF RECON,ioos:station:SCCF:13:1,2014-04-07T21:00:00Z,26.5255,-82.0032,2.635,32.19,1111122 
SCCF RECON,ioos:station:SCCF:13:1,2014-04-07T22:00:00Z,26.5255,-82.0032,2.671,32.5,1111122 
SCCF RECON,ioos:station:SCCF:13:1,2014-04-07T23:00:00Z,26.5255,-82.0032,2.7,32.52,1111122 
SCCF RECON,ioos:station:SCCF:13:1,2014-04-08T00:00:00Z,26.5255,-82.0032,2.689,32.55,1111122 
SCCF RECON,ioos:station:SCCF:13:1,2014-04-08T01:00:00Z,26.5255,-82.0032,2.663,32.43,1111122 
SCCF RECON,ioos:station:SCCF:13:1,2014-04-08T02:00:00Z,26.5255,-82.0032,2.6,31.94,1111122 
SCCF RECON,ioos:station:SCCF:13:1,2014-04-08T03:00:00Z,26.5255,-82.0032,2.53,29.82,1111122 
SCCF RECON,ioos:station:SCCF:13:1,2014-04-08T04:00:00Z,26.5255,-82.0032,2.46,28.43,1111122 
SCCF RECON,ioos:station:SCCF:13:1,2014-04-08T05:00:00Z,26.5255,-82.0032,2.41,27.87,1111122 
SCCF RECON,ioos:station:SCCF:13:1,2014-04-08T06:00:00Z,26.5255,-82.0032,2.341,25.26,1111122 
SCCF RECON,ioos:station:SCCF:13:1,2014-04-08T07:00:00Z,26.5255,-82.0032,2.29,24.13,1111122 
SCCF RECON,ioos:station:SCCF:13:1,2014-04-08T08:00:00Z,26.5255,-82.0032,2.29,23.03,1111122 
SCCF RECON,ioos:station:SCCF:13:1,2014-04-08T09:00:00Z,26.5255,-82.0032,2.34,22.36,1111122 
SCCF RECON,ioos:station:SCCF:13:1,2014-04-08T10:00:00Z,26.5255,-82.0032,2.408,22.42,1111122 
SCCF RECON,ioos:station:SCCF:13:1,2014-04-08T11:00:00Z,26.5255,-82.0032,2.489,26.14,1111122 
SCCF RECON,ioos:station:SCCF:13:1,2014-04-08T12:00:00Z,26.5255,-82.0032,2.568,27.63,1111122 
SCCF RECON,ioos:station:SCCF:13:1,2014-04-08T13:00:00Z,26.5255,-82.0032,2.63,31.61,1111122 
SCCF RECON,ioos:station:SCCF:13:1,2014-04-08T14:00:00Z,26.5255,-82.0032,2.69,32.69,1111122 
SCCF RECON,ioos:station:SCCF:13:1,2014-04-08T15:00:00Z,26.5255,-82.0032,2.695,32.82,1111122 
SCCF RECON,ioos:station:SCCF:13:1,2014-04-08T16:00:00Z,26.5255,-82.0032,2.708,32.88,1111122 
SCCF RECON,ioos:station:SCCF:13:1,2014-04-08T17:00:00Z,26.5255,-82.0032,2.705,32.88,1111122 
SCCF RECON,ioos:station:SCCF:13:1,2014-04-08T18:00:00Z,26.5255,-82.0032,2.775,33.0,1111122 
SCCF RECON,ioos:station:SCCF:13:1,2014-04-08T19:00:00Z,26.5255,-82.0032,2.717,33.0,1111122 
SCCF RECON,ioos:station:SCCF:13:1,2014-04-08T20:00:00Z,26.5255,-82.0032,2.642,32.89,1111122 
SCCF RECON,ioos:station:SCCF:13:1,2014-04-08T21:00:00Z,26.5255,-82.0032,2.679,32.92,1111122 
SCCF RECON,ioos:station:SCCF:13:1,2014-04-08T22:00:00Z,26.5255,-82.0032,2.687,32.65,1111122 
SCCF RECON,ioos:station:SCCF:13:1,2014-04-08T23:00:00Z,26.5255,-82.0032,2.63,32.55,1111122 
SCCF RECON,ioos:station:SCCF:13:1,2014-04-09T00:00:00Z,26.5255,-82.0032,2.607,32.21,1111122 
SCCF RECON,ioos:station:SCCF:13:1,2014-04-09T01:00:00Z,26.5255,-82.0032,2.635,31.5,1111122 
SCCF RECON,ioos:station:SCCF:13:1,2014-04-09T02:00:00Z,26.5255,-82.0032,2.703,31.16,1111122 
SCCF RECON,ioos:station:SCCF:13:1,2014-04-09T03:00:00Z,26.5255,-82.0032,2.691,31.57,1111122 
SCCF RECON,ioos:station:SCCF:13:1,2014-04-09T04:00:00Z,26.5255,-82.0032,2.61,31.26,1111122 
SCCF RECON,ioos:station:SCCF:13:1,2014-04-09T05:00:00Z,26.5255,-82.0032,2.537,29.63,1111122 
SCCF RECON,ioos:station:SCCF:13:1,2014-04-09T06:00:00Z,26.5255,-82.0032,2.448,28.98,1111122 
SCCF RECON,ioos:station:SCCF:13:1,2014-04-09T07:00:00Z,26.5255,-82.0032,2.352,27.08,1111122 
SCCF RECON,ioos:station:SCCF:13:1,2014-04-09T08:00:00Z,26.5255,-82.0032,2.317,25.09,1111122 
SCCF RECON,ioos:station:SCCF:13:1,2014-04-09T09:00:00Z,26.5255,-82.0032,2.3,24.22,1111122 
SCCF RECON,ioos:station:SCCF:13:1,2014-04-09T10:00:00Z,26.5255,-82.0032,2.31,23.69,1111122 
SCCF RECON,ioos:station:SCCF:13:1,2014-04-09T11:00:00Z,26.5255,-82.0032,2.397,23.16,1111122 
SCCF RECON,ioos:station:SCCF:13:1,2014-04-09T12:00:00Z,26.5255,-82.0032,2.429,23.81,1111122 
SCCF RECON,ioos:station:SCCF:13:1,2014-04-09T13:00:00Z,26.5255,-82.0032,2.488,23.68,1111122 
SCCF RECON,ioos:station:SCCF:13:1,2014-04-09T14:00:00Z,26.5255,-82.0032,2.481,24.65,1111122 
SCCF RECON,ioos:station:SCCF:13:1,2014-04-09T15:00:00Z,26.5255,-82.0032,2.48,25.83,1111122 
SCCF RECON,ioos:station:SCCF:13:1,2014-04-09T16:00:00Z,26.5255,-82.0032,2.464,26.84,1111122 
SCCF RECON,ioos:station:SCCF:13:1,2014-04-09T17:00:00Z,26.5255,-82.0032,2.382,25.56,1111122 
SCCF RECON,ioos:station:SCCF:13:1,2014-04-09T18:00:00Z,26.5255,-82.0032,2.332,23.52,1111122 
SCCF RECON,ioos:station:SCCF:13:1,2014-04-09T19:00:00Z,26.5255,-82.0032,2.285,22.68,1111122 
SCCF RECON,ioos:station:SCCF:13:1,2014-04-09T20:00:00Z,26.5255,-82.0032,2.243,21.69,1111122 
SCCF RECON,ioos:station:SCCF:13:1,2014-04-09T21:00:00Z,26.5255,-82.0032,2.23,21.19,1111122 
SCCF RECON,ioos:station:SCCF:13:1,2014-04-09T22:00:00Z,26.5255,-82.0032,2.238,20.43,1111122 
SCCF RECON,ioos:station:SCCF:13:1,2014-04-09T23:00:00Z,26.5255,-82.0032,2.273,19.87,1111122 
SCCF RECON,ioos:station:SCCF:13:1,2014-04-10T00:00:00Z,26.5255,-82.0032,2.33,20.17,1111122 
SCCF RECON,ioos:station:SCCF:13:1,2014-04-10T01:00:00Z,26.5255,-82.0032,2.38,20.65,1111122 
SCCF RECON,ioos:station:SCCF:13:1,2014-04-10T02:00:00Z,26.5255,-82.0032,2.4,21.51,1111122 
SCCF RECON,ioos:station:SCCF:13:1,2014-04-10T03:00:00Z,26.5255,-82.0032,2.41,22.44,1111122 
SCCF RECON,ioos:station:SCCF:13:1,2014-04-10T04:00:00Z,26.5255,-82.0032,2.41,24.53,1111122 
SCCF RECON,ioos:station:SCCF:13:1,2014-04-10T05:00:00Z,26.5255,-82.0032,2.366,26.13,1111122 
SCCF RECON,ioos:station:SCCF:13:1,2014-04-10T06:00:00Z,26.5255,-82.0032,2.285,22.41,1111122 
SCCF RECON,ioos:station:SCCF:13:1,2014-04-10T07:00:00Z,26.5255,-82.0032,2.22,20.26,1111122 
SCCF RECON,ioos:station:SCCF:13:1,2014-04-10T08:00:00Z,26.5255,-82.0032,2.17,19.48,1111122 
SCCF RECON,ioos:station:SCCF:13:1,2014-04-10T09:00:00Z,26.5255,-82.0032,2.13,18.25,1111122 
SCCF RECON,ioos:station:SCCF:13:1,2014-04-10T10:00:00Z,26.5255,-82.0032,2.13,17.67,1111122 
SCCF RECON,ioos:station:SCCF:13:1,2014-04-10T11:00:00Z,26.5255,-82.0032,2.22,16.84,1111122 
SCCF RECON,ioos:station:SCCF:13:1,2014-04-10T12:00:00Z,26.5255,-82.0032,2.31,16.5,1111122 
SCCF RECON,ioos:station:SCCF:13:1,2014-04-10T13:00:00Z,26.5255,-82.0032,2.372,20.28,1111122 
SCCF RECON,ioos:station:SCCF:13:1,2014-04-10T14:00:00Z,26.5255,-82.0032,2.44,22.05,1111122 
SCCF RECON,ioos:station:SCCF:13:1,2014-04-10T16:00:00Z,26.5255,-82.0032,2.51,28.82,1111122 
SCCF RECON,ioos:station:SCCF:13:1,2014-04-10T17:00:00Z,26.5255,-82.0032,2.502,30.18,1111122 
SCCF RECON,ioos:station:SCCF:13:1,2014-04-10T18:00:00Z,26.5255,-82.0032,2.445,30.22,1111122 
SCCF RECON,ioos:station:SCCF:13:1,2014-04-10T19:00:00Z,26.5255,-82.0032,2.391,30.26,1111122 
SCCF RECON,ioos:station:SCCF:13:1,2014-04-10T20:00:00Z,26.5255,-82.0032,2.34,30.0,1111122 
SCCF RECON,ioos:station:SCCF:13:1,2014-04-10T21:00:00Z,26.5255,-82.0032,2.29,25.63,1111122 
SCCF RECON,ioos:station:SCCF:13:1,2014-04-10T22:00:00Z,26.5255,-82.0032,2.291,21.67,1111122 
SCCF RECON,ioos:station:SCCF:13:1,2014-04-10T23:00:00Z,26.5255,-82.0032,2.35,21.78,1111122 
SCCF RECON,ioos:station:SCCF:13:1,2014-04-11T00:00:00Z,26.5255,-82.0032,2.436,25.02,1111122 
SCCF RECON,ioos:station:SCCF:13:1,2014-04-11T01:00:00Z,26.5255,-82.0032,2.505,28.09,1111122 
SCCF RECON,ioos:station:SCCF:13:1,2014-04-11T02:00:00Z,26.5255,-82.0032,2.56,28.85,1111122 
SCCF RECON,ioos:station:SCCF:13:1,2014-04-11T03:00:00Z,26.5255,-82.0032,2.584,28.95,1111122 
SCCF RECON,ioos:station:SCCF:13:1,2014-04-11T04:00:00Z,26.5255,-82.0032,2.59,29.9,1111122 
SCCF RECON,ioos:station:SCCF:13:1,2014-04-11T05:00:00Z,26.5255,-82.0032,2.55,30.47,1111122 
SCCF RECON,ioos:station:SCCF:13:1,2014-04-11T06:00:00Z,26.5255,-82.0032,2.47,30.97,1111122 
SCCF RECON,ioos:station:SCCF:13:1,2014-04-11T07:00:00Z,26.5255,-82.0032,2.38,30.21,1111122 
SCCF RECON,ioos:station:SCCF:13:1,2014-04-11T08:00:00Z,26.5255,-82.0032,2.29,24.52,1111122 
SCCF RECON,ioos:station:SCCF:13:1,2014-04-11T09:00:00Z,26.5255,-82.0032,2.24,21.45,1111122 
SCCF RECON,ioos:station:SCCF:13:1,2014-04-11T10:00:00Z,26.5255,-82.0032,2.21,21.06,1111122 
SCCF RECON,ioos:station:SCCF:13:1,2014-04-11T11:00:00Z,26.5255,-82.0032,2.28,20.23,1111122 
SCCF RECON,ioos:station:SCCF:13:1,2014-04-11T12:00:00Z,26.5255,-82.0032,2.42,19.93,1111122 
SCCF RECON,ioos:station:SCCF:13:1,2014-04-11T13:00:00Z,26.5255,-82.0032,2.511,24.67,1111122 
SCCF RECON,ioos:station:SCCF:13:1,2014-04-11T14:00:00Z,26.5255,-82.0032,2.58,27.25,1111122 
SCCF RECON,ioos:station:SCCF:13:1,2014-04-11T15:00:00Z,26.5255,-82.0032,2.647,30.15,1111122 
SCCF RECON,ioos:station:SCCF:13:1,2014-04-11T16:00:00Z,26.5255,-82.0032,2.679,31.12,1111122 
SCCF RECON,ioos:station:SCCF:13:1,2014-04-11T17:00:00Z,26.5255,-82.0032,2.661,31.28,1111122 
SCCF RECON,ioos:station:SCCF:13:1,2014-04-11T18:00:00Z,26.5255,-82.0032,2.589,31.22,1111122 
SCCF RECON,ioos:station:SCCF:13:1,2014-04-11T19:00:00Z,26.5255,-82.0032,2.511,31.16,1111122 